"Pseudo-MPEC" for C8KK682

Created 2022 Dec 16 5:22:07 UT using Find_Orb

Click here for an explanation of pseudo-MPECs

 
 Astrometry: 
     C8KK682*1C2022 12 01.33977305 16 06.902+03 15 06.84   ~C18q 21.18GVNEOCPG96
     C8KK682 1C2022 12 01.34492005 16 05.358+03 15 21.10   ~C18q 20.98GVNEOCPG96
     C8KK682 1C2022 12 01.35006805 16 03.756+03 15 35.35   ~C18q 21.16GVNEOCPG96
     C8KK682 KC2022 12 01.45479405 15 31.600+03 20 32.90   ~C1Bb       VNEOCPI52
     C8KK682 KC2022 12 01.46020205 15 29.980+03 20 48.80   ~C1Bb       VNEOCPI52
     C8KK682 KC2022 12 01.46290405 15 29.190+03 20 55.80   ~C1Bb 23.35GVNEOCPI52
     C8KK682  C2022 12 02.25464 05 11 43.72 +03 57 18.8    ~C42M 21.5 GVNEOCPG96
     C8KK682  C2022 12 02.25713 05 11 43.00 +03 57 25.9    ~C42M 21.0 GVNEOCPG96
     C8KK682 1C2022 12 02.34679005 11 17.03 +04 01 26.8    ~C41q 20.4 GVNEOCPG96
     C8KK682 1C2022 12 02.34954805 11 16.25 +04 01 33.9    ~C41q 20.3 GVNEOCPG96
     C8KK682 1C2022 12 02.35230305 11 15.43 +04 01 40.6    ~C41q 21.3 GVNEOCPG96

Station data:
(G96) Mt. Lemmon Survey  (N32.442751 W110.788720)  US/Arizona.  Observers T.
   A. Pruyne, B. M. Africano, E. J. Christensen, G. A. Farneth, D. C. Fuls,
   A. R. Gibbs, A. D. Grauer, H. Gröller, J. A. Johnson, R. A. Kowalski, S.
   M. Larson, G. J. Leonard, D. Rankin, R. L. Seaman, F. C. Shelly, K. W.
   Wierzchoś. 1.5-m reflector + 10K CCD.
(I52) Steward Observatory, Mt. Lemmon Station  (N32.442544 W110.788920)
   US/Arizona.  Observers T. A. Pruyne, B. M. Africano, E. J. Christensen, G.
   A. Farneth, D. C. Fuls, A. R. Gibbs, A. D. Grauer, H. Gröller, J. A.
   Johnson, R. A. Kowalski, S. M. Larson, G. J. Leonard, D. Rankin, R. L.
   Seaman, F. C. Shelly, K. W. Wierzchoś. 1.0-m reflector + CCD.

Orbital elements:  C8KK682
   Perihelion 2022 Sep 26.30080 +/- 0.913 TT =  7:13:09 (JD 2459848.80080)
Epoch 2022 Dec  2.0 TT = JDT 2459915.5   Earth MOID: 0.0985   Ve: 0.0459
M  22.74339917 +/- 2.3              (J2000 ecliptic)             AutoNEOCP
n   0.34098460 +/- 0.031            Peri.  215.21436 +/- 0.6
a   2.02914399 +/- 0.123            Node   106.14654 +/- 1.0
e   0.7307770 +/- 0.0198            Incl.    7.33402 +/- 0.24
P   2.89                   H 22.92  G  0.15   U 10.4
q 0.54629223 +/- 0.00739    Q 3.51199575 +/- 0.253
From 11 observations 2022 Dec. 1-2 (24.3 hr); mean residual 0".32
Residuals in arcseconds: 
221201 G96  .46-  .15+    221201 I52  .02-  .63+    221202 G96  .12-  .49+    
221201 G96  .26+  .25-    221201 I52  .42+  .01+    221202 G96  .12+  .23+    
221201 G96  .10+  .67-    221202 G96  .12+  .43-    221202 G96  .25-  .42-    
221201 I52  .34-  .01-    221202 G96  .13+  .03-    

Ephemerides (geocentric):
Date (UTC) HH   RA             Dec           delta  r     elong  mag " sig PA
---- --------  ------------   ------------  ------ ------ -----  --- --------
2022 12 16 05  04 29 48.794   +11 03 33.02  .45421 1.4206 160.5 22.8 95.5 132
2022 12 16 06  04 29 44.340   +11 04 24.64  .45478 1.4210 160.5 22.8 95.8 132
2022 12 16 07  04 29 39.899   +11 05 16.16  .45535 1.4215 160.5 22.8 96.1 132
2022 12 16 08  04 29 35.472   +11 06 07.58  .45592 1.4220 160.4 22.8 96.4 132
2022 12 16 09  04 29 31.058   +11 06 58.91  .45649 1.4225 160.4 22.8 96.7 132
2022 12 16 10  04 29 26.658   +11 07 50.13  .45706 1.4230 160.3 22.8 97.0 132
2022 12 16 11  04 29 22.270   +11 08 41.26  .45764 1.4234 160.3 22.8 97.3 132
2022 12 16 12  04 29 17.896   +11 09 32.29  .45821 1.4239 160.3 22.8 97.6 132
2022 12 16 13  04 29 13.536   +11 10 23.23  .45878 1.4244 160.2 22.8 97.9 132
2022 12 16 14  04 29 09.188   +11 11 14.07  .45936 1.4249 160.2 22.8 98.2 132
2022 12 16 15  04 29 04.853   +11 12 04.81  .45993 1.4253 160.1 22.8 98.5 132
2022 12 16 16  04 29 00.532   +11 12 55.45  .46050 1.4258 160.1 22.8 98.7 132
2022 12 16 17  04 28 56.224   +11 13 46.00  .46108 1.4263 160.1 22.8 99.0 132
2022 12 16 18  04 28 51.929   +11 14 36.46  .46165 1.4268 160.0 22.9 99.3 132
2022 12 16 19  04 28 47.647   +11 15 26.82  .46223 1.4273 160.0 22.9 99.6 132
2022 12 16 20  04 28 43.378   +11 16 17.08  .46280 1.4277 159.9 22.9  100 132
2022 12 16 21  04 28 39.122   +11 17 07.25  .46338 1.4282 159.9 22.9  100 132
2022 12 16 22  04 28 34.878   +11 17 57.33  .46395 1.4287 159.9 22.9  101 132
2022 12 16 23  04 28 30.648   +11 18 47.31  .46453 1.4292 159.8 22.9  101 132
2022 12 17 00  04 28 26.431   +11 19 37.20  .46511 1.4296 159.8 22.9  101 132
2022 12 17 01  04 28 22.227   +11 20 27.00  .46568 1.4301 159.7 22.9  101 132
2022 12 17 02  04 28 18.035   +11 21 16.70  .46626 1.4306 159.7 22.9  102 133
2022 12 17 03  04 28 13.856   +11 22 06.31  .46684 1.4311 159.6 22.9  102 133
2022 12 17 04  04 28 09.690   +11 22 55.83  .46742 1.4316 159.6 22.9  102 133
2022 12 17 05  04 28 05.537   +11 23 45.26  .46799 1.4320 159.6 22.9  103 133
2022 12 17 06  04 28 01.397   +11 24 34.59  .46857 1.4325 159.5 22.9  103 133
2022 12 17 07  04 27 57.269   +11 25 23.83  .46915 1.4330 159.5 22.9  103 133
2022 12 17 08  04 27 53.154   +11 26 12.98  .46973 1.4335 159.4 22.9  103 133
2022 12 17 09  04 27 49.051   +11 27 02.04  .47031 1.4339 159.4 22.9  104 133
2022 12 17 10  04 27 44.961   +11 27 51.01  .47089 1.4344 159.4 22.9  104 133
2022 12 17 11  04 27 40.884   +11 28 39.89  .47147 1.4349 159.3 22.9  104 133
2022 12 17 12  04 27 36.819   +11 29 28.68  .47205 1.4354 159.3 22.9  105 133
2022 12 17 13  04 27 32.767   +11 30 17.38  .47263 1.4358 159.2 22.9  105 133
2022 12 17 14  04 27 28.727   +11 31 05.99  .47321 1.4363 159.2 22.9  105 133
2022 12 17 15  04 27 24.700   +11 31 54.51  .47379 1.4368 159.1 22.9  105 133
2022 12 17 16  04 27 20.685   +11 32 42.94  .47438 1.4373 159.1 22.9  106 133
2022 12 17 17  04 27 16.683   +11 33 31.28  .47496 1.4377 159.1 22.9  106 133
2022 12 17 18  04 27 12.693   +11 34 19.54  .47554 1.4382 159.0 23.0  106 133
2022 12 17 19  04 27 08.716   +11 35 07.70  .47612 1.4387 159.0 23.0  106 133
2022 12 17 20  04 27 04.750   +11 35 55.78  .47671 1.4392 158.9 23.0  107 133
2022 12 17 21  04 27 00.797   +11 36 43.77  .47729 1.4397 158.9 23.0  107 133
2022 12 17 22  04 26 56.857   +11 37 31.67  .47787 1.4401 158.9 23.0  107 133
2022 12 17 23  04 26 52.928   +11 38 19.49  .47846 1.4406 158.8 23.0  108 133
2022 12 18 00  04 26 49.012   +11 39 07.21  .47904 1.4411 158.8 23.0  108 133
2022 12 18 01  04 26 45.108   +11 39 54.86  .47963 1.4416 158.7 23.0  108 133
2022 12 18 02  04 26 41.217   +11 40 42.41  .48021 1.4420 158.7 23.0  108 133
2022 12 18 03  04 26 37.337   +11 41 29.88  .48080 1.4425 158.6 23.0  109 133
2022 12 18 04  04 26 33.469   +11 42 17.27  .48138 1.4430 158.6 23.0  109 133